WET,Max TemperatureF,Mean TemperatureF,Min TemperatureF,Max Dew PointF,MeanDew PointF,Min DewpointF,Max Humidity, Mean Humidity, Min Humidity, Max Sea Level PressureIn, Mean Sea Level PressureIn, Min Sea Level PressureIn, Max VisibilityMiles, Mean VisibilityMiles, Min VisibilityMiles, Max Wind SpeedMPH, Mean Wind SpeedMPH, Max Gust SpeedMPH,PrecipitationIn, CloudCover, Events, WindDirDegrees
2014-1-1,61,51,41,55,45,37,94,77,50,30.27,30.19,30.15,6,6,6,9,4,,0.00,,,215
2014-1-2,68,58,48,57,51,45,100,81,52,30.23,30.18,30.15,9,5,4,7,5,,0.00,,,215
2014-1-3,70,60,50,59,53,46,94,83,55,30.27,30.22,30.18,9,7,6,7,3,,0.00,3,,223
2014-1-4,68,62,55,61,56,51,100,88,70,30.34,30.26,30.21,9,6,0,7,3,,0.00,4,Fog,224
2014-1-5,64,57,50,57,54,50,100,89,65,30.33,30.22,30.15,6,3,0,9,4,,0.00,4,Fog,89
2014-1-6,63,54,46,55,51,45,100,87,61,30.18,30.14,30.09,6,4,0,7,3,,0.00,4,,217
2014-1-7,64,54,44,55,51,43,100,87,59,30.15,30.10,29.99,4,2,0,5,2,,0.00,7,Fog,155
2014-1-8,85,68,50,52,41,27,59,40,17,30.08,30.01,29.95,9,8,6,9,5,,0.00,,,178
2014-1-9,75,64,53,55,45,37,94,53,22,30.00,29.92,29.83,6,5,4,109,6,,0.00,,,107
2014-1-10,70,62,54,57,46,34,94,56,19,29.92,29.83,29.77,6,5,5,12,5,,0.00,6,,204
2014-1-11,67,61,55,57,54,46,94,76,56,30.12,30.02,29.92,9,6,5,9,4,,0.00,4,,229
2014-1-12,66,58,50,57,52,46,94,80,45,30.27,30.21,30.15,6,5,4,7,3,,0.00,,,221
2014-1-13,66,57,48,57,52,46,94,88,72,30.34,30.28,30.24,6,5,4,9,3,,0.04,6,Rain,174
2014-1-14,63,56,48,51,47,45,94,76,42,30.33,30.28,30.24,6,6,5,5,3,,0.00,2,,209
2014-1-15,66,56,46,57,50,44,94,81,57,30.24,30.12,30.04,6,6,6,9,3,,0.00,3,,191
2014-1-16,61,56,51,57,53,50,100,90,78,30.06,30.00,29.95,6,4,0,9,4,,0.43,5,Fog-Rain,215
2014-1-17,62,56,51,53,49,45,94,82,62,29.99,29.77,29.59,12,5,4,18,6,,0.35,5,Rain,203
2014-1-18,61,56,51,50,49,46,94,80,51,29.76,29.67,29.56,6,6,6,12,7,,0.43,6,Rain,236
2014-1-19,63,58,54,57,51,46,94,77,55,30.04,29.83,29.68,6,6,3,18,10,30,0.43,4,Rain,285
2014-1-20,61,56,51,50,48,43,88,73,41,30.18,30.10,30.04,12,7,6,8,3,,0.00,3,,103
2014-1-21,64,54,45,46,43,39,82,66,35,30.21,30.17,30.12,12,9,6,9,3,,0.00,2,,153
2014-1-22,54,52,50,47,45,43,82,73,62,30.17,30.10,30.06,12,7,6,7,5,,0.00,5,Rain,194
2014-1-23,61,56,51,48,45,43,82,62,48,30.30,30.24,30.21,9,7,6,9,7,,0.00,3,,30
2014-1-24,61,52,44,50,47,43,93,75,54,30.41,30.34,30.30,12,9,6,8,3,,0.00,1,,74
2014-1-25,62,54,46,55,49,42,88,78,59,30.39,30.34,30.30,12,7,6,7,3,,0.00,5,,131
2014-1-26,66,58,51,55,53,48,94,80,65,30.33,30.29,30.27,9,6,6,9,3,,0.00,4,,73
2014-1-27,65,59,53,57,55,53,100,89,74,30.30,30.24,30.18,6,6,4,52,4,,0.12,5,Rain,237
2014-1-28,62,58,53,56,51,46,94,76,52,30.21,30.07,29.95,9,6,6,9,4,,0.00,3,Rain,26
2014-1-29,68,60,51,54,49,45,94,76,33,29.98,29.82,29.74,9,6,3,20,6,,0.35,4,Rain,286
2014-1-30,60,56,51,50,46,42,82,66,43,30.12,29.98,29.86,9,6,5,12,8,,0.04,3,Rain,343
2014-1-31,61,57,53,57,53,48,97,90,77,30.16,30.13,30.09,6,6,4,7,5,,0.31,4,Rain,235